This demonstration page uses our WeatherBlox Daily Observations layout. Learn more.

Left ArrowRight Arrow

39.01783, -85.05884

Hourly Observations for August 18, 2022

Temp ( °F °C ) Dew Point ( °F °C ) Humidity (%) Winds ( mph kmh ) Pressure ( in mb ) Visibility ( mi km ) Precip ( " mm )
12:52 am 00:52 Clear 71 21.7 61 16.1 70 70 NNE 6 9 30.00 1016 10 16 0.00 0.00
1:52 am 01:52 Clear 66 18.9 61 16.1 84 84 N 7 11 30.00 1016 10 16 0.00 0.00
2:52 am 02:52 Clear 65 18.3 61 16.1 87 87 NNW 6 9 29.99 1016 10 16 0.00 0.00
3:52 am 03:52 Clear 64 17.8 58 14.4 80 80 N 7 11 29.99 1016 10 16 0.00 0.00
4:52 am 04:52 Clear 64 17.8 60 15.6 87 87 N 5 7 30.00 1016 10 16 0.00 0.00
5:52 am 05:52 Clear 63 17.2 59 15 87 87 N 6 9 30.00 1016 10 16 0.00 0.00
6:52 am 06:52 Clear 64 17.8 60 15.6 87 87 N 3 6 30.01 1016 9 14 0.00 0.00
7:52 am 07:52 Sunny 65 18.3 62 16.7 90 90 N 5 7 30.02 1017 10 16 0.00 0.00
8:52 am 08:52 Mostly Sunny 69 20.6 62 16.7 78 78 NNE 3 6 30.02 1017 10 16 0.00 0.00
9:52 am 09:52 Mostly Sunny 72 22.2 63 17.2 73 73 ENE 6 9 30.02 1017 10 16 0.00 0.00
10:52 am 10:52 Mostly Sunny 75 23.9 62 16.7 64 64 NNE 5 7 30.02 1017 10 16 0.00 0.00
11:52 am 11:52 Mostly Sunny 78 25.6 60 15.6 54 54 ENE 8 13 30.01 1016 10 16 0.00 0.00
12:52 pm 12:52 Partly Cloudy 79 26.1 59 15 50 50 VRB 3 6 30.01 1016 10 16 0.00 0.00
1:52 pm 13:52 Mostly Cloudy 80 26.7 58 14.4 47 47 VRB 5 7 30.01 1016 10 16 0.00 0.00
2:52 pm 14:52 Partly Cloudy 81 27.2 59 15 47 47 VRB 3 6 29.99 1016 10 16 0.00 0.00
3:52 pm 15:52 Partly Cloudy 79 26.1 58 14.4 49 49 WNW 6 9 29.98 1015 10 16 0.00 0.00
4:52 pm 16:52 Mostly Sunny 80 26.7 60 15.6 51 51 W 3 6 29.97 1015 10 16 0.00 0.00
5:52 pm 17:52 Mostly Sunny 83 28.3 58 14.4 43 43 Calm 29.96 1015 10 16 0.00 0.00
6:52 pm 18:52 Mostly Sunny 81 27.2 60 15.6 49 49 W 9 15 29.96 1015 10 16 0.00 0.00
7:52 pm 19:52 Mostly Sunny 77 25 61 16.1 58 58 W 5 7 29.95 1014 10 16 0.00 0.00
8:52 pm 20:52 Mostly Clear 74 23.3 60 15.6 62 62 W 5 7 29.96 1014 10 16 0.00 0.00
9:52 pm 21:52 Clear 71 21.7 61 16.1 70 70 Calm 29.97 1015 10 16 0.00 0.00
10:52 pm 22:52 Clear 68 20 61 16.1 78 78 Calm 29.98 1015 10 16 0.00 0.00
11:52 pm 23:52 Clear 69 20.6 61 16.1 75 75 Calm 29.98 1015 10 16 0.00 0.00

Powered by AerisWeather